This is the latest recevied weather packets stored in our database for station/object N7AWM. If no packets are shown the sender has not sent any weather packets the latest 10 day(s).
| Time | Temp. | Humidity | Pressure | Rain* | Wind** | Luminosity | Snow |
|---|---|---|---|---|---|---|---|
| 1777969560 | 21.11° C | 38% | 1003.7 hPa | 0 mm | - | - | - |
| 1777968720 | 21.67° C | 38% | 1003.7 hPa | 0 mm | - | - | - |
| 1777967881 | 21.11° C | 38% | 1003.6 hPa | 0 mm | - | - | - |
| 1777967041 | 20.56° C | 39% | 1003.6 hPa | 0 mm | - | - | - |
| 1777966201 | 21.11° C | 38% | 1003.4 hPa | 0 mm | - | - | - |
| 1777965361 | 21.11° C | 38% | 1003.4 hPa | 0 mm | - | - | - |
| 1777964521 | 21.67° C | 37% | 1003.3 hPa | 0 mm | - | - | - |
| 1777963681 | 21.11° C | 38% | 1003.2 hPa | 0 mm | - | - | - |
| 1777962841 | 21.67° C | 37% | 1003.1 hPa | 0 mm | - | - | - |
| 1777962001 | 21.67° C | 36% | 1003.2 hPa | 0 mm | - | - | - |
| 1777961161 | 21.67° C | 35% | 1003.1 hPa | 0 mm | - | - | - |
| 1777960321 | 21.67° C | 35% | 1003.2 hPa | 0 mm | - | - | - |
| 1777959481 | 22.22° C | 34% | 1003.2 hPa | 0 mm | - | - | - |
| 1777958641 | 21.67° C | 34% | 1003.2 hPa | 0 mm | - | - | - |
| 1777957801 | 22.22° C | 33% | 1003.1 hPa | 0 mm | - | - | - |
| 1777956961 | 22.22° C | 33% | 1003.1 hPa | 0 mm | - | - | - |
| 1777956121 | 22.22° C | 32% | 1003.1 hPa | 0 mm | - | - | - |
| 1777955282 | 22.22° C | 31% | 1002.9 hPa | 0 mm | - | - | - |
| 1777954442 | 22.22° C | 31% | 1002.8 hPa | 0 mm | - | - | - |
| 1777953602 | 22.78° C | 30% | 1002.6 hPa | 0 mm | - | - | - |
| 1777952762 | 22.22° C | 31% | 1002.5 hPa | 0 mm | - | - | - |
| 1777951922 | 22.78° C | 31% | 1002.4 hPa | 0 mm | - | - | - |
| 1777951082 | 22.78° C | 31% | 1002.3 hPa | 0 mm | - | - | - |
| 1777950242 | 23.33° C | 30% | 1002.2 hPa | 0 mm | - | - | - |
| 1777949402 | 23.89° C | 29% | 1001.9 hPa | 0 mm | - | - | - |
* Rain latest hour (hover to see other rain measurements)
** Current wind speed in m/s (hover to see current wind gust speed)